Regional Weather Roundup
Issued by NWS

Home | Current Version | Previous Version | Text Only | Print | Product List | Glossary Off
Versions: 1 2 3 4 5 6 7 8 9 10 11 12 13 14 15 16 17 18 19 20 21 22 23 24 25 26 27 28 29 30 31 32 33 34 35 36 37 38 39 40 41 42 43 44 45 46 47 48 49 50

000
ASUS43 KMKX 011510
RWRWI

WISCONSIN REGIONAL WEATHER ROUNDUP
NATIONAL WEATHER SERVICE MILWAUKEE/SULLIVAN WI
900 AM CST SUN MAR 01 2015

NOTE: "FAIR" INDICATES FEW OR NO CLOUDS BELOW 12,000 FEET WITH NO
SIGNIFICANT WEATHER AND/OR OBSTRUCTIONS TO VISIBILITY.

WIZ001-002-006>008-014>016-023>028-011600-
NORTHWEST WISCONSIN

CITY           SKY/WX    TMP DP  RH WIND       PRES   REMARKS
SUPERIOR ARPT  FLURRIES  17  11  77 W9        30.18R WCI   5
ASHLAND        LGT SNOW  17  10  74 SW9       30.16S WCI   6
HAYWARD        LGT SNOW  15  10  80 SW10      30.15S WCI   2
SIREN          LGT SNOW  17  12  82 SW12      30.20R WCI   4
CUMBERLAND     LGT SNOW  16  12  86 SW10      30.17R WCI   3
RICE LAKE      FLURRIES  16  11  83 S8        30.20S WCI   5
CHETEK         LGT SNOW  15  11  84 S8        30.21R WCI   4
LADYSMITH      LGT SNOW  14  10  85 S8        30.20S WCI   3
EAU CLAIRE     LGT SNOW  15  10  80 SW9       30.24R WCI   3
MENOMONIE      LGT SNOW  17  12  81 SW9       30.24R WCI   6
NEW RICHMOND   FLURRIES  17  12  83 SW9       30.22R WCI   5
OSCEOLA        LGT SNOW  18  14  83 W9        30.25R WCI   7
$$

WIZ003>005-009-010-017-018-011600-
NORTH CENTRAL WISCONSIN

CITY           SKY/WX    TMP DP  RH WIND       PRES   REMARKS
MANITOWISH WTR LGT SNOW  12   7  78 SW12      30.11F WCI  -2
ARBOR VITAE    LGT SNOW  14   8  78 SW8       30.12F WCI   3
WOODRUFF       LGT SNOW  14   8  78 SW8       30.12F WCI   3
RHINELANDER    CLOUDY    10   5  80 SW9       30.14F HAZE    WCI  -3
EAGLE RIVER    MOSUNNY   12   4  71 SW10      30.12F WCI  -1
LAND O LAKES   FLURRIES  14   7  71 SW7       30.11F WCI   4
PHILLIPS       LGT SNOW  12   8  83 SW9       30.14S WCI   0
TOMAHAWK       LGT SNOW  13   7  79 CALM      30.16F
MEDFORD        LGT SNOW  10   7  85 SW9       30.18R WCI  -2
MERRILL        LGT SNOW  12   7  81 SW7       30.19F WCI   2
$$

WIZ029-030-035-036-043>047-011600-
CENTRAL WISCONSIN

CITY           SKY/WX    TMP DP  RH WIND       PRES   REMARKS
WAUSAU         MOSUNNY   11   6  81 SW9       30.21S WCI  -2
MOSINEE        PTSUNNY   10   9  92 SW12      30.24S WCI  -4
MARSHFIELD     LGT SNOW  12   8  84 SW10      30.23S FOG     WCI  -1
STEVENS POINT  LGT SNOW  10   6  82 SW7       30.27R WCI  -1
WAUPACA        MOSUNNY   14   8  76 S8        30.30R WCI   3
WAUTOMA        PTSUNNY   12   7  81 SW9       30.31R WCI   0
WISC RAPIDS    CLOUDY    12   6  77 SW10      30.29R WCI  -1
CAMP DOUGLAS   PTSUNNY   16  12  86 SW6       30.29R WCI   7
$$

WIZ011>013-019>022-031-037>040-048>050-011600-
NORTHEAST WISCONSIN

CITY           SKY/WX    TMP DP  RH WIND       PRES   REMARKS
ANTIGO         SUNNY     10   6  84 SW8       30.18F WCI  -3
SHAWANO        MOSUNNY   17   8  70 SW6       30.28S WCI   8
OCONTO         MOSUNNY   17   8  70 W7        30.28F WCI   7
STURGEON BAY   MOSUNNY   16   7  67 SW9       30.29F WCI   4
GREEN BAY      SUNNY     16  10  77 SW10      30.30F WCI   4
MANITOWOC      MOSUNNY   18  13  80 SW9       30.33S WCI   7
APPLETON       PTSUNNY   16  10  79 SW9       30.29F WCI   4
CLINTONVILLE   SUNNY     14   9  79 SW7       30.28S WCI   4
OSHKOSH        MOSUNNY   15  10  80 SW8       30.31S HAZE    WCI   4
$$

WIZ032>034-041-042-053>061-011600-
SOUTHWEST WISCONSIN

CITY           SKY/WX    TMP DP  RH WIND       PRES   REMARKS
LA CROSSE      CLOUDY    15  10  80 S7        30.32R HAZE    WCI   5
SPARTA         CLOUDY    15  10  80 SW6       30.30S WCI   7
VIROQUA        PTSUNNY   14  12  92 SW6       30.27S WCI   5
BOSCOBEL       MOSUNNY   16   9  74 CALM      30.35R
PRAIRIE DU CHI SUNNY     14   8  77 CALM      30.35S
PLATTEVILLE    CLOUDY    13  10  89 S3        30.33S VSB 1
$$

WIZ056-057-062-063-064-067-068-011600-
SOUTH CENTRAL WISCONSIN

CITY           SKY/WX    TMP DP  RH WIND       PRES   REMARKS
REEDSBURG      MOSUNNY   15  11  82 S5        30.31R WCI   8
BARABOO/DELLS  MOSUNNY   16  11  81 W3        30.30S
LONE ROCK      CLOUDY    14  10  84 CALM      30.34S FOG
MINERAL POINT  LGT SNOW  16  12  86 CALM      30.30F
MADISON        MOSUNNY   16  11  80 S7        30.33S WCI   6
MIDDLETON      MOSUNNY   19  12  75 S7        30.33F WCI   9
WATERTOWN      MOSUNNY   16  13  86 SW5       30.33F WCI   9
MONROE         PTSUNNY   14  14 100 SW3       30.31F FOG
JANESVILLE     MOSUNNY   16  14  93 SW6       30.35S FOG     WCI   7
$$

WIZ051-052-058>065-066-070>072-011600-
SOUTHEAST WISCONSIN

CITY           SKY/WX    TMP DP  RH WIND       PRES   REMARKS
MILWAUKEE      PTSUNNY   17  13  84 W8        30.36R FOG     WCI   7
WAUKESHA       PTSUNNY   16  12  86 SW5       30.35R FOG     WCI   9
MILWAUKEE/TIMM SUNNY     18  12  79 W7        30.36R WCI   8
RACINE         PTSUNNY   15  12  88 W8        30.38S FOG     WCI   4
BURLINGTON     LGT SNOW  15  14  93 SW5       30.35S WCI   8
KENOSHA        CLOUDY    16  14  92 CALM      30.35F FOG
FOND DU LAC    PTSUNNY   16  11  80 SW8       30.32S WCI   5
SHEBOYGAN      PTSUNNY   16  11  80 SW6       30.33S WCI   7
WEST BEND      PTSUNNY   19  12  73 W7        30.33S WCI  10
JUNEAU         MOSUNNY   16  12  84 SW6       30.33F WCI   7
$$

LSZ147-162-011600-
LAKE SUPERIOR

STATION/POSITION TIME  TEMP    WIND        PRES    WAVE
                       AIR SEA DIR/SP/G            HT/PER
                 (UTC) (F)     (DEG/KT/KT) (MB)    (FT/S)
DEVILS ISLAND    1500   17     230/ 16/ 19 1021.9S
PORT WING        1400   17     200/ 11/ 15 1021.0F
SAXON HARBOR     1440   17     210/  9/ 14 1021.3F
$$

LMZ867-665-643>646-011600-
LAKE MICHIGAN

STATION/POSITION TIME  TEMP    WIND        PRES    WAVE
                       AIR SEA DIR/SP/G            HT/PER
                 (UTC) (F)     (DEG/KT/KT) (MB)    (FT/S)
NORTHPORT PIER   1406   15     220/  6/ 12 1025.4F
KEWAUNEE LAKESHO 1400   13     240/  4/  7 1025.8F
SHEBOYGAN LAKESH 1500   17     230/  8/ 10 1028.9S
PORT WASHINGTON  1440   18     250/  6/ 10 1028.4S
MILWAUKEE LAKESH 1400   16     240/  7/ 11   N/A
KENOSHA   LAKESH 1500   16     270/  4/  8 1028.1F
$$

TC  - TEMPERATURE IN CELSIUS
VSB - VISIBILITY IN STATUTE MILES
WCI - WIND CHILL INDEX
HX  - HEAT INDEX




USA.gov is the U.S. government's official web portal to all federal, state and local government web resources and services.